Location: Unspecified
(40.7945°N, 0.0000°E)
Time: 09:01:43
(UTC+00:00)

Courier 1B - Pass Details

Date: 24 January 2021
Orbit: 962 x 1209 km, 28.3° (Epoch: 06 March)

Event Time Altitude Azimuth Distance (km) Brightness Sun altitude
Rises 02:39:36 0° 254° (WSW) 3,645 - -51.9°
Reaches altitude 10° 02:42:46 10° 241° (WSW) 2,687 - -51.3°
Maximum altitude 02:47:43 24° 190° (S) 1,889 - -50.4°
Drops below altitude 10° 02:52:43 10° 140° (SE) 2,708 - -49.6°
Exits shadow 02:55:20 - 128° (SE) 3,490 10.7 -49.1°
Sets 02:55:56 0° 126° (SE) 3,680 10.8 -49.0°
